Regional Weather Roundup
Issued by NWS

Home | Current Version | Previous Version | Text Only | Print | Product List | Glossary Off
Versions: 1 2 3 4 5 6 7 8 9 10 11 12 13 14 15 16 17 18 19 20 21 22 23 24 25 26 27 28 29 30 31 32 33 34 35 36 37 38 39 40 41 42 43 44 45 46 47 48 49 50

000
ASUS43 KTOP 011559
RWRKS

WEATHER ROUNDUP FOR KANSAS
NATIONAL WEATHER SERVICE GOODLAND KS
1100 AM CDT WED JUL 01 2015

NOTE:  "FAIR" INDICATES FEW OR NO CLOUDS BELOW 12,000 FEET WITH NO
SIGNIFICANT WEATHER AND/OR OBSTRUCTIONS TO VISIBILITY.

KSZ001>006-013>018-027>032-041>047-011700-
NORTHWEST KANSAS

CITY           SKY/WX    TMP DP  RH WIND       PRES   REMARKS
GOODLAND       MOSUNNY   85  60  42 N15       29.99R
HAYS           PTSUNNY   84  55  37 N14       29.82R
HILL CITY      MOSUNNY   88  63  43 N21G26    29.87R
RUSSELL        CLOUDY    86  57  37 NW15      29.79R
$$

KSZ061>065-074>080-084>089-011700-
SOUTHWEST KANSAS

CITY           SKY/WX    TMP DP  RH WIND       PRES   REMARKS
DODGE CITY     MOSUNNY   82  56  40 W13       29.88S
ELKHART          N/A     91  54  28 N10         N/A
GARDEN CITY    PTSUNNY   87  58  37 NW12      29.91S
GREAT BEND     CLOUDY    88  61  40 W13       29.81S
LIBERAL        SUNNY     84  57  39 W9        29.95S
PRATT          MOSUNNY   88  54  31 W21       29.83S
$$

KSZ066>073-081>083-090>101-011700-
SOUTHEAST KANSAS

CITY           SKY/WX    TMP DP  RH WIND       PRES   REMARKS
COFFEYVILLE    MOSUNNY   88  71  57 SW9       29.87F
HUTCHINSON     MOSUNNY   91  60  35 SW12      29.79F
MEDICINE LODGE   N/A     91  63  39 SW13      29.81F
PARSONS        MOSUNNY   87  75  67 VRB6      29.89F HX  96
WICHITA INTL   MOSUNNY   91  63  39 SW16      29.80F
WICHITA JABRA  MOSUNNY   89  65  44 SW16      29.80F
WICHITA MCCONL SUNNY     89  64  44 S21       29.81F
WINFIELD       SUNNY     91  66  43 SW21G31   29.85F
$$

KSZ007>012-019>026-033>040-048>060-102>105-011700-
NORTHEAST KANSAS

CITY           SKY/WX    TMP DP  RH WIND       PRES   REMARKS
CONCORDIA      MOSUNNY   85  66  53 SE8       29.77F
EMPORIA        CLOUDY    80  67  64 S14       29.83S
LAWRENCE       PTSUNNY   75  70  84 SE14      29.83F
MANHATTAN      MOSUNNY   88  65  46 SW12      29.77F
OLATHE IND     PTSUNNY   75  71  87 SE18      29.85F
OLATHE EXE     PTSUNNY   76  71  85 S18       29.84F
SALINA         PTSUNNY   87  65  47 S9        29.78F
TOPEKA BILLARD PTSUNNY   81  71  71 S14G23    29.81F
TOPEKA FORBES  PTSUNNY   81  69  67 S18G24    29.82R
$$



USA.gov is the U.S. government's official web portal to all federal, state and local government web resources and services.